Weather History for Siren, WI

Change the Weather History Date:

Saturday, March 15, 2014

  Actual Average Record
Temperature  
Mean Temperature 22 °F -  
Max Temperature 28 °F - - ()
Min Temperature 14 °F - - ()
Degree Days  
Heating Degree Days 44    
Moisture  
Dew Point 8 °F    
Average Humidity 56    
Maximum Humidity 79    
Minimum Humidity 35    
Precipitation  
Precipitation 0.00 in - - ()
Sea Level Pressure  
Sea Level Pressure 30.18 in    
Wind  
Wind Speed 8 mph (NNE)    
Max Wind Speed 12 mph    
Max Gust Speed 17 mph    
Visibility 10 miles    
Events      
T = Trace of Precipitation, MM = Missing Value Source: NWS Daily Summary

Daily Weather History Graph

Daily Weather History Graph

Search for Another Location

Airport:

Trip Planner

Search our weather history database for the weather conditions in past years. The results will help you decide how hot, cold, wet, or windy it might be!

Date:

Astronomy

Mar. 15, 2014 Rise Set
Actual Time 7:22 AM CDT 7:15 PM CDT
Civil Twilight 6:52 AM CDT 7:45 PM CDT
Nautical Twilight 6:17 AM CDT 8:19 PM CDT
Astronomical Twilight 5:42 AM CDT 8:55 PM CDT
Moon 6:34 PM CDT (3/15) 6:36 AM CDT (3/15)
Length of Visible Light 12h 52m
Length of Day
11h 53m
Waxing Gibbous, 99% of the Moon is Illuminated
Mar 15
Waxing Gibbous
Mar 16
Full
Mar 23
Last Quarter
Mar 30
New
Apr 7
First Quarter

Hourly Weather History & Observations

Time (CDT) Temp. Windchill Dew Point Humidity Pressure Visibility Wind Dir Wind Speed Gust Speed Precip Events Conditions
12:10 AM 25.5 °F 15.5 °F 15.4 °F 66% 29.94 in 10.0 mi North 10.4 mph - N/A   Overcast
12:30 AM 24.8 °F 14.0 °F 13.8 °F 63% 29.94 in 10.0 mi North 11.5 mph - N/A   Overcast
12:50 AM 24.3 °F 13.3 °F 12.9 °F 62% 29.95 in 10.0 mi North 11.5 mph 16.1 mph N/A   Mostly Cloudy
1:10 AM 23.9 °F 15.8 °F 11.3 °F 59% 29.96 in 10.0 mi NNW 6.9 mph - N/A   Scattered Clouds
1:30 AM 23.0 °F 14.7 °F 11.7 °F 62% 29.97 in 10.0 mi NNW 6.9 mph - N/A   Clear
1:50 AM 22.6 °F 15.3 °F 11.8 °F 63% 29.96 in 10.0 mi North 5.8 mph - N/A   Clear
2:10 AM 21.7 °F 15.5 °F 12.2 °F 67% 29.97 in 10.0 mi NNW 4.6 mph - N/A   Clear
2:30 AM 20.3 °F 13.8 °F 12.2 °F 71% 29.98 in 10.0 mi NW 4.6 mph - N/A   Clear
2:50 AM 19.4 °F 12.8 °F 11.7 °F 72% 29.98 in 10.0 mi NW 4.6 mph - N/A   Clear
3:10 AM 18.0 °F 9.8 °F 10.9 °F 74% 29.99 in 10.0 mi NW 5.8 mph - N/A   Clear
3:30 AM 18.1 °F 11.3 °F 11.1 °F 74% 29.99 in 10.0 mi NW 4.6 mph - N/A   Clear
3:50 AM 17.2 °F 10.2 °F 10.8 °F 76% 30.00 in 10.0 mi WNW 4.6 mph - N/A   Clear
4:10 AM 17.2 °F 11.9 °F 10.9 °F 76% 30.00 in 10.0 mi NNW 3.5 mph - N/A   Clear
4:30 AM 17.2 °F 11.9 °F 10.6 °F 75% 30.00 in 10.0 mi NNW 3.5 mph - N/A   Clear
4:50 AM 17.2 °F 8.9 °F 10.9 °F 76% 30.01 in 10.0 mi NNW 5.8 mph - N/A   Clear
5:10 AM 16.9 °F 9.8 °F 10.6 °F 76% 30.02 in 10.0 mi NNW 4.6 mph - N/A   Clear
5:30 AM 16.9 °F 9.8 °F 10.4 °F 76% 30.03 in 10.0 mi North 4.6 mph - N/A   Clear
5:50 AM 17.1 °F 10.0 °F 10.4 °F 75% 30.03 in 10.0 mi North 4.6 mph - N/A   Clear
6:10 AM 17.4 °F 9.1 °F 10.4 °F 74% 30.04 in 10.0 mi North 5.8 mph - N/A   Clear
6:30 AM 17.2 °F 11.9 °F 10.6 °F 75% 30.05 in 10.0 mi NNW 3.5 mph - N/A   Clear
6:50 AM 17.1 °F 10.0 °F 10.6 °F 76% 30.06 in 10.0 mi North 4.6 mph - N/A   Clear
7:10 AM 16.3 °F 7.8 °F 10.4 °F 77% 30.08 in 10.0 mi North 5.8 mph - N/A   Clear
7:30 AM 15.8 °F 8.6 °F 10.4 °F 79% 30.08 in 10.0 mi North 4.6 mph - N/A   Clear
7:50 AM 16.0 °F 8.8 °F 10.4 °F 79% 30.10 in 10.0 mi North 4.6 mph - N/A   Clear
8:10 AM 16.7 °F 7.2 °F 10.4 °F 76% 30.10 in 10.0 mi North 6.9 mph - N/A   Clear
8:30 AM 17.6 °F 8.2 °F 10.4 °F 73% 30.10 in 10.0 mi NNE 6.9 mph - N/A   Clear
8:50 AM 18.9 °F 12.1 °F 10.2 °F 69% 30.12 in 10.0 mi NNE 4.6 mph - N/A   Clear
9:10 AM 20.1 °F 11.3 °F 9.3 °F 63% 30.12 in 10.0 mi NE 6.9 mph - N/A   Clear
9:30 AM 21.2 °F 10.9 °F 7.7 °F 56% 30.13 in 10.0 mi ENE 9.2 mph - N/A   Clear
9:50 AM 21.9 °F 11.0 °F 7.7 °F 54% 30.14 in 10.0 mi ENE 10.4 mph - N/A   Clear
10:10 AM 22.1 °F 11.3 °F 8.1 °F 55% 30.15 in 10.0 mi North 10.4 mph - N/A   Clear
10:30 AM 22.6 °F 14.3 °F 8.6 °F 55% 30.16 in 10.0 mi NE 6.9 mph - N/A   Clear
10:50 AM 23.5 °F 13.7 °F 9.0 °F 54% 30.17 in 10.0 mi NNE 9.2 mph - N/A   Clear
11:10 AM 23.9 °F 14.2 °F 8.4 °F 52% 30.17 in 10.0 mi NE 9.2 mph 17.3 mph N/A   Clear
11:30 AM 24.1 °F 13.7 °F 7.5 °F 49% 30.18 in 10.0 mi North 10.4 mph - N/A   Clear
11:50 AM 25.0 °F 14.8 °F 7.9 °F 48% 30.18 in 10.0 mi NNE 10.4 mph 16.1 mph N/A   Clear
12:10 PM 25.7 °F 15.7 °F 6.3 °F 44% 30.19 in 10.0 mi NE 10.4 mph 16.1 mph N/A   Clear
12:30 PM 25.7 °F 15.1 °F 7.0 °F 45% 30.20 in 10.0 mi North 11.5 mph - N/A   Clear
12:50 PM 26.2 °F 16.4 °F 7.0 °F 44% 30.20 in 10.0 mi North 10.4 mph - N/A   Clear
1:10 PM 26.4 °F 17.3 °F 5.2 °F 40% 30.21 in 10.0 mi NNE 9.2 mph - N/A   Clear
1:30 PM 26.6 °F 19.1 °F 5.7 °F 41% 30.22 in 10.0 mi North 6.9 mph - N/A   Clear
1:50 PM 27.3 °F 19.9 °F 6.1 °F 41% 30.22 in 10.0 mi NNE 6.9 mph 10.4 mph N/A   Clear
2:10 PM 27.9 °F 20.6 °F 7.0 °F 41% 30.22 in 10.0 mi ENE 6.9 mph - N/A   Clear
2:30 PM 27.7 °F 21.3 °F 6.3 °F 40% 30.22 in 10.0 mi ENE 5.8 mph - N/A   Clear
2:50 PM 27.7 °F 21.3 °F 6.3 °F 40% 30.22 in 10.0 mi NE 5.8 mph - N/A   Clear
3:10 PM 28.6 °F 19.9 °F 6.8 °F 40% 30.22 in 10.0 mi NNE 9.2 mph - N/A   Clear
3:30 PM 28.2 °F 18.9 °F 7.5 °F 42% 30.23 in 10.0 mi NE 10.4 mph - N/A   Clear
3:50 PM 28.2 °F 19.5 °F 7.3 °F 41% 30.23 in 10.0 mi NE 9.2 mph - N/A   Clear
4:10 PM 28.2 °F 18.9 °F 7.0 °F 41% 30.24 in 10.0 mi NE 10.4 mph - N/A   Clear
4:30 PM 28.2 °F 21.0 °F 5.4 °F 38% 30.25 in 10.0 mi NNW 6.9 mph - N/A   Clear
4:50 PM 28.4 °F 22.2 °F 6.3 °F 39% 30.25 in 10.0 mi North 5.8 mph - N/A   Clear
5:10 PM 28.2 °F 18.3 °F 4.8 °F 37% 30.26 in 10.0 mi NE 11.5 mph 16.1 mph N/A   Clear
5:30 PM 28.0 °F 18.1 °F 4.8 °F 37% 30.27 in 10.0 mi NE 11.5 mph 17.3 mph N/A   Clear
5:50 PM 27.5 °F 18.0 °F 3.0 °F 35% 30.28 in 10.0 mi NE 10.4 mph - N/A   Clear
6:10 PM 26.6 °F 16.8 °F 3.7 °F 38% 30.29 in 10.0 mi NNE 10.4 mph - N/A   Clear
6:30 PM 26.2 °F 17.1 °F 2.7 °F 36% 30.30 in 10.0 mi NNE 9.2 mph - N/A   Clear
6:50 PM 25.7 °F 18.0 °F 2.7 °F 37% 30.31 in 10.0 mi NNE 6.9 mph - N/A   Clear
7:10 PM 24.6 °F 15.8 °F 3.0 °F 40% 30.32 in 10.0 mi NE 8.1 mph - N/A   Clear
7:30 PM 23.7 °F 15.6 °F 3.6 °F 42% 30.33 in 10.0 mi NE 6.9 mph - N/A   Clear
7:50 PM 23.0 °F 13.9 °F 2.5 °F 41% 30.35 in 10.0 mi NE 8.1 mph 17.3 mph N/A   Clear
8:10 PM 22.1 °F 12.0 °F 3.0 °F 44% 30.36 in 10.0 mi NE 9.2 mph - N/A   Clear
8:30 PM 21.2 °F 11.7 °F 3.0 °F 46% 30.37 in 10.0 mi NNE 8.1 mph - N/A   Clear
8:50 PM 19.9 °F 12.1 °F 3.6 °F 49% 30.39 in 10.0 mi NNE 5.8 mph - N/A   Clear
9:10 PM 19.8 °F 9.9 °F 3.0 °F 48% 30.40 in 10.0 mi NE 8.1 mph - N/A   Clear
9:30 PM 18.5 °F 9.3 °F 3.6 °F 52% 30.41 in 10.0 mi NE 6.9 mph - N/A   Clear
9:50 PM 18.1 °F 8.9 °F 3.9 °F 54% 30.42 in 10.0 mi NE 6.9 mph - N/A   Clear
10:10 PM 17.6 °F 9.3 °F 3.7 °F 55% 30.42 in 10.0 mi NE 5.8 mph - N/A   Clear
10:30 PM 17.6 °F 10.7 °F 4.1 °F 56% 30.42 in 10.0 mi NE 4.6 mph - N/A   Clear
10:50 PM 17.1 °F 10.0 °F 4.6 °F 58% 30.43 in 10.0 mi ENE 4.6 mph - N/A   Clear
11:10 PM 16.3 °F 7.8 °F 4.6 °F 60% 30.44 in 10.0 mi ENE 5.8 mph - N/A   Clear
11:30 PM 15.6 °F 10.0 °F 4.1 °F 60% 30.44 in 10.0 mi East 3.5 mph - N/A   Clear
11:50 PM 14.9 °F 7.5 °F 3.7 °F 61% 30.44 in 10.0 mi East 4.6 mph - N/A   Clear